Regional Weather Roundup
Issued by NWS

Home | Current Version | Previous Version | Graphics & Text | Print | Product List | Glossary On
Versions: 1 2 3 4 5 6 7 8 9 10 11 12 13 14 15 16 17 18 19 20 21 22 23 24 25 26 27 28 29 30 31 32 33 34 35 36 37 38 39 40 41 42 43 44 45 46 47 48 49 50
000
ASUS43 KLSX 160707
RWRMO

WEATHER SUMMARY FOR MISSOURI
NATIONAL WEATHER SERVICE SPRINGFIELD MO
100 AM CST TUE JAN 16 2018

NOTE: "FAIR" INDICATES FEW OR NO CLOUDS BELOW 12,000 FEET WITH NO
       SIGNIFICANT WEATHER AND/OR OBSTRUCTIONS TO VISIBILITY.
       CURRENT SKY AND/OR WEATHER CONDITIONS ARE NOT AVAILABLE FOR
       CHILLICOTHE AND FARMINGTON.

MOZ001>031-035>038-043-044-053-054-160800-
...NORTHERN AND WESTERN MISSOURI...

CITY           SKY/WX    TMP DP  RH WIND       PRES   REMARKS
KANSAS CTY INT CLEAR     -2  -9  72 NW12      30.67F WCI -20
KANSAS C DTWN  CLEAR      2  -8  63 NW8       30.72F WCI -12
LEE`S SUMMIT   CLEAR      0 -10  63 NW10      30.68F WCI -16
ST JOSEPH        N/A    N/A N/A N/A MISG      30.72F
CHILLICOTHE      N/A     -2 -11  65 NW10      30.68F WCI -19
KIRKSVILLE     CLEAR     -4  -7  87 W12       30.59F WCI -22

$$
MOZ066>068-077>081-088>096-101>105-160800-
...SOUTHWEST MISSOURI...

CITY           SKY/WX    TMP DP  RH WIND       PRES   REMARKS
SPRINGFIELD    CLOUDY     1  -8  66 NW12      30.61F WCI -16
JOPLIN         CLOUDY     2  -4  76 NW8       30.70S WCI -12

$$
MOZ032>034-039>042-045>050-055>058-069>072-160800-
...CENTRAL MISSOURI...

CITY           SKY/WX    TMP DP  RH WIND       PRES   REMARKS
COLUMBIA       CLEAR      0  -8  69 NW8       30.61S WCI -14
JEFFERSON CITY CLEAR      3  -7  63 NW8       30.67S WCI -10
ROLLA          CLEAR      1  -6  72 NW12      30.58F WCI -16
SEDALIA        PTCLDY     1  -7  68 NW8       30.66S WCI -13
WHITEMAN AFB   CLEAR     -1  -9  70 NW8       30.62R WCI -16
WARRENSBURG    CLEAR      1  -9  60 NW10G16   30.70S WCI -14
OSAGE BEACH    CLOUDY     2  -6  69 VRB7      30.65S WCI -11

$$
MOZ051-052-059>065-160800-
...EAST CENTRAL MISSOURI...

CITY           SKY/WX    TMP DP  RH WIND       PRES   REMARKS
ST LOUIS INTL  PTCLDY     4  -5  66 NW16G26   30.59S WCI -15
SPIRIT OF STL  CLEAR      4  -5  66 W12G17    30.61S WCI -12
ST CHARLES     CLOUDY     4  -5  66 W16G30    30.60F WCI -15

$$
MOZ072>076-082>087-097>100-106>115-160800-
...SOUTH CENTRAL AND SOUTHEAST MISSOURI...

CITY           SKY/WX    TMP DP  RH WIND       PRES   REMARKS
CAPE GIRARDEAU FAIR      13   2  61 N12       30.58F WCI  -1
FARMINGTON     CLOUDY     7  -2  66 NW12G18   30.57R WCI  -8
POPLAR BLUFF   FAIR      15   3  59 NW9       30.60S WCI   3
WEST PLAINS    CLOUDY     7  -2  66 NW13G23   30.57S WCI  -9

$$



USA.gov is the U.S. government's official web portal to all federal, state and local government web resources and services.